| time (UTC) | temp F | wind direction | speed knots | gust knots | rain 1hr in | rain 24hr in | rain mn in | humidity % | barometer mb |
| 20260505123209 | 59 | 294 | 2.6 | 4.3 | 0.00 | 0.00 | 0.00 | 55 | 993.8 |
| 20260505122709 | 59 | 279 | 2.6 | 5.2 | 0.00 | 0.00 | 0.00 | 55 | 993.8 |
| 20260505122211 | 59 | 261 | 4.3 | 4.3 | 0.00 | 0.00 | 0.00 | 53 | 993.8 |
| 20260505121711 | 59 | 258 | 4.3 | 6.1 | 0.00 | 0.00 | 0.00 | 53 | 993.8 |
| 20260505121210 | 59 | 292 | 2.6 | 2.6 | 0.00 | 0.00 | 0.00 | 53 | 993.8 |
| 20260505120710 | 59 | 207 | 4.3 | 5.2 | 0.00 | 0.00 | 0.00 | 53 | 993.8 |
| 20260505120210 | 59 | 267 | 2.6 | 4.3 | 0.00 | 0.00 | 0.00 | 52 | 993.7 |
| 20260505115710 | 60 | 248 | 4.3 | 4.3 | 0.00 | 0.00 | 0.00 | 52 | 993.7 |
| 20260505115209 | 60 | 244 | 2.6 | 2.6 | 0.00 | 0.00 | 0.00 | 52 | 993.7 |
| 20260505114709 | 60 | 258 | 4.3 | 4.3 | 0.00 | 0.00 | 0.00 | 52 | 993.5 |
| 20260505114209 | 60 | 236 | 2.6 | 4.3 | 0.00 | 0.00 | 0.00 | 51 | 993.5 |
| 20260505113711 | 60 | 254 | 1.7 | 1.7 | 0.00 | 0.00 | 0.00 | 51 | 993.2 |
| 20260505113210 | 60 | 257 | 4.3 | 5.2 | 0.00 | 0.00 | 0.00 | 51 | 993.2 |
| 20260505112709 | 60 | 258 | 2.6 | 2.6 | 0.00 | 0.00 | 0.00 | 51 | 993.1 |
| 20260505112209 | 60 | 193 | 2.6 | 5.2 | 0.00 | 0.00 | 0.00 | 51 | 993.1 |
| 20260505111710 | 60 | 283 | 1.7 | 4.3 | 0.00 | 0.00 | 0.00 | 51 | 993.1 |
| 20260505111209 | 61 | 193 | 2.6 | 2.6 | 0.00 | 0.00 | 0.00 | 50 | 992.8 |
| 20260505110709 | 61 | 260 | 1.7 | 1.7 | 0.00 | 0.00 | 0.00 | 50 | 992.8 |
| 20260505110209 | 61 | 192 | 4.3 | 4.3 | 0.00 | 0.00 | 0.00 | 50 | 992.6 |
| 20260505102209 | 62 | 235 | 2.6 | 4.3 | 0.00 | 0.00 | 0.00 | 50 | 992.0 |
| 20260505101709 | 63 | 151 | 2.6 | 2.6 | 0.00 | 0.00 | 0.00 | 49 | 992.0 |
| 20260505101211 | 63 | 184 | 1.7 | 2.6 | 0.00 | 0.00 | 0.00 | 49 | 991.7 |
| 20260505100710 | 63 | 244 | 2.6 | 6.1 | 0.00 | 0.00 | 0.00 | 49 | 991.7 |
| 20260505100210 | 63 | 292 | 4.3 | 4.3 | 0.00 | 0.00 | 0.00 | 49 | 991.4 |
| 20260505095710 | 64 | 213 | 4.3 | 5.2 | 0.00 | 0.00 | 0.00 | 48 | 991.4 |
| 20260505095210 | 64 | 205 | 5.2 | 10.4 | 0.00 | 0.00 | 0.00 | 48 | 991.4 |
| 20260505094710 | 64 | 158 | 2.6 | 4.3 | 0.00 | 0.00 | 0.00 | 48 | 991.3 |
| 20260505094210 | 64 | 228 | 4.3 | 5.2 | 0.00 | 0.00 | 0.00 | 47 | 991.3 |
| 20260505093709 | 64 | 117 | 4.3 | 6.1 | 0.00 | 0.00 | 0.00 | 47 | 991.0 |
| 20260505093209 | 65 | 248 | 4.3 | 4.3 | 0.00 | 0.00 | 0.00 | 47 | 991.0 |
| 20260505092709 | 65 | 238 | 5.2 | 7.0 | 0.00 | 0.00 | 0.00 | 47 | 990.9 |
| 20260505092211 | 65 | 246 | 4.3 | 6.1 | 0.00 | 0.00 | 0.00 | 47 | 990.9 |
| 20260505091711 | 66 | 231 | 4.3 | 5.2 | 0.00 | 0.00 | 0.00 | 46 | 990.9 |
| 20260505091210 | 66 | 260 | 5.2 | 6.1 | 0.00 | 0.00 | 0.00 | 46 | 990.6 |
| 20260505090710 | 67 | 171 | 4.3 | 5.2 | 0.00 | 0.00 | 0.00 | 45 | 990.6 |
| 20260505090210 | 67 | 250 | 4.3 | 7.0 | 0.00 | 0.00 | 0.00 | 45 | 990.4 |
| 20260505085710 | 68 | 245 | 8.7 | 8.7 | 0.00 | 0.00 | 0.00 | 45 | 990.4 |
| 20260505085209 | 68 | 191 | 6.1 | 7.8 | 0.00 | 0.00 | 0.00 | 44 | 990.4 |
| 20260505084709 | 68 | 203 | 7.8 | 12.2 | 0.00 | 0.00 | 0.00 | 44 | 990.3 |
| 20260505084209 | 68 | 169 | 7.0 | 10.4 | 0.00 | 0.00 | 0.00 | 44 | 990.3 |
| 20260505083711 | 69 | 189 | 7.8 | 7.8 | 0.00 | 0.00 | 0.00 | 44 | 990.2 |
| 20260505083211 | 69 | 214 | 8.7 | 11.3 | 0.00 | 0.00 | 0.00 | 43 | 990.2 |
| 20260505082711 | 70 | 224 | 6.1 | 11.3 | 0.00 | 0.00 | 0.00 | 43 | 990.1 |
| 20260505082210 | 70 | 236 | 1.7 | 4.3 | 0.00 | 0.00 | 0.00 | 43 | 990.1 |
| 20260505081710 | 71 | 255 | 5.2 | 10.4 | 0.00 | 0.00 | 0.00 | 42 | 990.1 |
| 20260505081210 | 71 | 240 | 7.8 | 8.7 | 0.00 | 0.00 | 0.00 | 42 | 990.0 |
| 20260505080710 | 71 | 200 | 6.1 | 7.0 | 0.00 | 0.00 | 0.00 | 42 | 990.0 |
| 20260505080209 | 71 | 228 | 7.0 | 7.8 | 0.00 | 0.00 | 0.00 | 42 | 989.9 |
| 20260505075709 | 72 | 202 | 6.1 | 8.7 | 0.00 | 0.00 | 0.00 | 41 | 989.9 |
| 20260505075209 | 72 | 259 | 5.2 | 7.0 | 0.00 | 0.00 | 0.00 | 42 | 989.9 |
| 20260505074711 | 72 | 236 | 8.7 | 8.7 | 0.00 | 0.00 | 0.00 | 41 | 989.7 |
| 20260505074211 | 72 | 234 | 7.8 | 7.8 | 0.00 | 0.00 | 0.00 | 40 | 989.7 |
| 20260505073710 | 73 | 191 | 7.0 | 8.7 | 0.00 | 0.00 | 0.00 | 40 | 989.6 |
| 20260505073210 | 73 | 248 | 6.1 | 7.8 | 0.00 | 0.00 | 0.00 | 40 | 989.6 |
| 20260505072710 | 73 | 229 | 6.1 | 7.0 | 0.00 | 0.00 | 0.00 | 40 | 989.5 |
| 20260505072210 | 74 | 203 | 5.2 | 8.7 | 0.00 | 0.00 | 0.00 | 39 | 989.5 |
| 20260505071709 | 73 | 247 | 6.1 | 6.1 | 0.00 | 0.00 | 0.00 | 39 | 989.5 |
| 20260505071209 | 73 | 214 | 12.2 | 13.9 | 0.00 | 0.00 | 0.00 | 39 | 989.4 |
| 20260505070711 | 74 | 228 | 6.1 | 6.1 | 0.00 | 0.00 | 0.00 | 39 | 989.4 |
| 20260505070211 | 74 | 191 | 7.8 | 8.7 | 0.00 | 0.00 | 0.00 | 39 | 989.3 |
| 20260505065710 | 74 | 202 | 7.0 | 8.7 | 0.00 | 0.00 | 0.00 | 39 | 989.3 |
| 20260505065210 | 74 | 288 | 7.8 | 7.0 | 0.00 | 0.00 | 0.00 | 38 | 989.3 |
| 20260505064710 | 74 | 270 | 6.1 | 11.3 | 0.00 | 0.00 | 0.00 | 38 | 989.3 |
| 20260505064210 | 74 | 273 | 7.0 | 7.0 | 0.00 | 0.00 | 0.00 | 38 | 989.3 |
| 20260505063709 | 74 | 192 | 8.7 | 8.7 | 0.00 | 0.00 | 0.00 | 38 | 989.1 |
| 20260505063210 | 75 | 210 | 5.2 | 7.8 | 0.00 | 0.00 | 0.00 | 38 | 989.1 |
| 20260505062709 | 75 | 227 | 10.4 | 15.6 | 0.00 | 0.00 | 0.00 | 37 | 989.0 |
| 20260505062209 | 76 | 261 | 6.1 | 10.4 | 0.00 | 0.00 | 0.00 | 37 | 989.0 |
| 20260505061711 | 75 | 195 | 7.8 | 10.4 | 0.00 | 0.00 | 0.00 | 37 | 989.0 |
| 20260505061211 | 76 | 219 | 7.0 | 10.4 | 0.00 | 0.00 | 0.00 | 36 | 989.0 |
| 20260505060710 | 75 | 251 | 7.8 | 11.3 | 0.00 | 0.00 | 0.00 | 36 | 989.0 |
| 20260505060210 | 76 | 191 | 7.0 | 8.7 | 0.00 | 0.00 | 0.00 | 36 | 988.9 |
| 20260505055710 | 77 | 243 | 5.2 | 6.1 | 0.00 | 0.00 | 0.00 | 35 | 988.9 |
| 20260505055210 | 78 | 275 | 5.2 | 7.8 | 0.00 | 0.00 | 0.00 | 34 | 988.9 |
| 20260505054710 | 77 | 251 | 4.3 | 6.1 | 0.00 | 0.00 | 0.00 | 34 | 989.0 |
| 20260505054210 | 77 | 202 | 6.1 | 7.8 | 0.00 | 0.00 | 0.00 | 34 | 989.0 |
| 20260505053709 | 76 | 201 | 7.8 | 8.7 | 0.00 | 0.00 | 0.00 | 34 | 989.1 |
| 20260505053210 | 76 | 297 | 4.3 | 6.1 | 0.00 | 0.00 | 0.00 | 33 | 989.1 |
| 20260505052710 | 77 | 251 | 5.2 | 7.0 | 0.00 | 0.00 | 0.00 | 32 | 989.2 |
| 20260505052209 | 77 | 233 | 5.2 | 5.2 | 0.00 | 0.00 | 0.00 | 31 | 989.2 |
| 20260505051709 | 77 | 192 | 2.6 | 2.6 | 0.00 | 0.00 | 0.00 | 25 | 989.2 |
| 20260505051209 | 77 | 223 | 2.6 | 4.3 | 0.00 | 0.00 | 0.00 | 25 | 989.4 |
| 20260505050709 | 76 | 192 | 2.6 | 2.6 | 0.00 | 0.00 | 0.00 | 24 | 989.4 |
| 20260505050211 | 76 | 165 | 2.6 | 5.2 | 0.00 | 0.00 | 0.00 | 24 | 989.5 |
| 20260505041710 | 76 | 254 | 2.6 | 4.3 | 0.00 | 0.00 | 0.00 | 22 | 990.0 |
| 20260505041210 | 76 | 249 | 1.7 | 2.6 | 0.00 | 0.00 | 0.00 | 21 | 990.0 |
| 20260505040710 | 75 | 218 | 1.7 | 2.6 | 0.00 | 0.00 | 0.00 | 22 | 990.0 |
| 20260505040210 | 75 | 355 | 2.6 | 2.6 | 0.00 | 0.00 | 0.00 | 23 | 990.1 |
| 20260505035710 | 74 | 9 | 1.7 | 2.6 | 0.00 | 0.00 | 0.00 | 23 | 990.2 |
| 20260505035211 | 74 | 187 | 2.6 | 2.6 | 0.00 | 0.00 | 0.00 | 23 | 990.2 |
| 20260505034711 | 73 | 120 | 1.7 | 2.6 | 0.00 | 0.00 | 0.00 | 23 | 990.3 |
| 20260505034211 | 74 | 190 | 2.6 | 4.3 | 0.00 | 0.00 | 0.00 | 22 | 990.3 |
| 20260505033710 | 74 | 273 | 1.7 | 1.7 | 0.00 | 0.00 | 0.00 | 22 | 990.4 |
| 20260505033210 | 74 | 250 | 2.6 | 4.3 | 0.00 | 0.00 | 0.00 | 22 | 990.4 |
| 20260505032710 | 74 | 269 | 1.7 | 2.6 | 0.00 | 0.00 | 0.00 | 23 | 990.5 |
| 20260505032210 | 74 | 270 | 2.6 | 2.6 | 0.00 | 0.00 | 0.00 | 23 | 990.5 |
| 20260505031710 | 73 | 191 | 1.7 | 2.6 | 0.00 | 0.00 | 0.00 | 25 | 990.5 |
| 20260505031210 | 73 | 102 | 2.6 | 2.6 | 0.00 | 0.00 | 0.00 | 23 | 990.6 |
| 20260505030709 | 73 | 225 | 1.7 | 1.7 | 0.00 | 0.00 | 0.00 | 22 | 990.6 |
| 20260505030209 | 73 | 331 | 2.6 | 2.6 | 0.00 | 0.00 | 0.00 | 21 | 990.7 |
| 20260505025709 | 72 | 286 | 4.3 | 4.3 | 0.00 | 0.00 | 0.00 | 22 | 990.7 |
| 20260505025211 | 72 | 340 | 1.7 | 2.6 | 0.00 | 0.00 | 0.00 | 22 | 990.7 |
| 20260505024710 | 71 | 297 | 2.6 | 4.3 | 0.00 | 0.00 | 0.00 | 22 | 990.7 |
| 20260505024210 | 71 | 180 | 1.7 | 2.6 | 0.00 | 0.00 | 0.00 | 26 | 990.7 |
| 20260505023710 | 71 | 193 | 2.6 | 4.3 | 0.00 | 0.00 | 0.00 | 24 | 990.9 |
| 20260505023210 | 71 | 180 | 2.6 | 5.2 | 0.00 | 0.00 | 0.00 | 23 | 990.9 |
| 20260505022710 | 72 | 81 | 2.6 | 4.3 | 0.00 | 0.00 | 0.00 | 23 | 991.0 |
| 20260505022209 | 71 | 0 | 1.7 | 4.3 | 0.00 | 0.00 | 0.00 | 25 | 991.1 |
| 20260505021709 | 69 | 12 | 1.7 | 4.3 | 0.00 | 0.00 | 0.00 | 24 | 991.1 |
| 20260505021210 | 70 | 173 | 2.6 | 4.3 | 0.00 | 0.00 | 0.00 | 25 | 991.2 |
| 20260505020710 | 70 | 191 | 1.7 | 4.3 | 0.00 | 0.00 | 0.00 | 24 | 991.2 |
| 20260505020210 | 70 | 202 | 2.6 | 5.2 | 0.00 | 0.00 | 0.00 | 24 | 991.3 |
| 20260505015709 | 69 | 235 | 2.6 | 2.6 | 0.00 | 0.00 | 0.00 | 25 | 991.3 |
| 20260505015209 | 69 | 336 | 1.7 | 1.7 | 0.00 | 0.00 | 0.00 | 25 | 991.3 |
| 20260505014709 | 69 | 166 | 2.6 | 2.6 | 0.00 | 0.00 | 0.00 | 27 | 991.4 |
| 20260505014211 | 69 | 172 | 1.7 | 1.7 | 0.00 | 0.00 | 0.00 | 25 | 991.4 |
| 20260505013711 | 70 | 118 | 4.3 | 5.2 | 0.00 | 0.00 | 0.00 | 25 | 991.5 |
| 20260505013211 | 70 | 98 | 2.6 | 2.6 | 0.00 | 0.00 | 0.00 | 23 | 991.5 |
| 20260505012710 | 69 | 162 | 2.6 | 5.2 | 0.00 | 0.00 | 0.00 | 26 | 991.5 |
| 20260505012210 | 68 | 159 | 2.6 | 4.3 | 0.00 | 0.00 | 0.00 | 24 | 991.5 |
| 20260505011710 | 69 | 128 | 1.7 | 4.3 | 0.00 | 0.00 | 0.00 | 26 | 991.5 |
| 20260505011210 | 69 | 101 | 1.7 | 2.6 | 0.00 | 0.00 | 0.00 | 24 | 991.6 |
| 20260505010710 | 67 | 283 | 1.7 | 2.6 | 0.00 | 0.00 | 0.00 | 25 | 991.6 |
| 20260505010210 | 67 | 112 | 1.7 | 1.7 | 0.00 | 0.00 | 0.00 | 25 | 991.6 |
| 20260505005709 | 68 | 147 | 2.6 | 2.6 | 0.00 | 0.00 | 0.00 | 28 | 991.6 |
| 20260505005210 | 67 | 18 | 4.3 | 5.2 | 0.00 | 0.00 | 0.00 | 25 | 991.6 |
| 20260505004710 | 67 | 2 | 1.7 | 1.7 | 0.00 | 0.00 | 0.00 | 25 | 991.7 |
| 20260505004209 | 67 | 45 | 2.6 | 2.6 | 0.00 | 0.00 | 0.00 | 25 | 991.7 |
| 20260505003709 | 64 | 3 | 1.7 | 2.6 | 0.00 | 0.00 | 0.00 | 28 | 991.6 |
| 20260505003211 | 66 | 116 | 4.3 | 5.2 | 0.00 | 0.00 | 0.00 | 28 | 991.6 |
| 20260505002711 | 66 | 144 | 5.2 | 6.1 | 0.00 | 0.00 | 0.00 | 28 | 991.6 |
| 20260505002210 | 66 | 121 | 2.6 | 5.2 | 0.00 | 0.00 | 0.00 | 31 | 991.6 |
| 20260505001710 | 64 | 280 | 1.7 | 5.2 | 0.00 | 0.00 | 0.00 | 28 | 991.6 |
| 20260505001210 | 66 | 270 | 4.3 | 5.2 | 0.00 | 0.00 | 0.00 | 29 | 991.6 |
| 20260505000710 | 65 | 17 | 2.6 | 2.6 | 0.00 | 0.00 | 0.00 | 28 | 991.6 |
| 20260505000211 | 64 | 199 | 2.6 | 4.3 | 0.00 | 0.00 | 0.00 | 29 | 991.6 |
| 20260504235709 | 64 | 305 | 2.6 | 2.6 | 0.00 | 0.00 | 0.00 | 29 | 991.6 |
| 20260504235209 | 65 | 314 | 4.3 | 5.2 | 0.00 | 0.00 | 0.00 | 28 | 991.6 |
| 20260504234711 | 63 | 77 | 1.7 | 1.7 | 0.00 | 0.00 | 0.00 | 31 | 991.7 |
| 20260504234211 | 63 | 152 | 1.7 | 2.6 | 0.00 | 0.00 | 0.00 | 30 | 991.7 |
| 20260504233710 | 63 | 228 | 1.7 | 4.3 | 0.00 | 0.00 | 0.00 | 30 | 991.9 |
| 20260504233210 | 63 | 117 | 2.6 | 2.6 | 0.00 | 0.00 | 0.00 | 30 | 991.9 |
| 20260504232710 | 63 | 86 | 1.7 | 2.6 | 0.00 | 0.00 | 0.00 | 32 | 991.9 |
| 20260504232210 | 62 | 102 | 0.9 | 2.6 | 0.00 | 0.00 | 0.00 | 32 | 991.9 |
| 20260504231709 | 60 | 147 | 2.6 | 2.6 | 0.00 | 0.00 | 0.00 | 34 | 991.9 |
| 20260504231210 | 61 | 112 | 2.6 | 5.2 | 0.00 | 0.01 | 0.00 | 34 | 992.0 |
| 20260504230710 | 60 | 192 | 2.6 | 4.3 | 0.00 | 0.01 | 0.00 | 35 | 992.0 |
| 20260504230210 | 60 | 177 | 4.3 | 4.3 | 0.00 | 0.01 | 0.00 | 34 | 991.8 |
| 20260504225710 | 61 | 191 | 4.3 | 4.3 | 0.00 | 0.01 | 0.00 | 34 | 991.8 |
| 20260504225209 | 60 | 175 | 1.7 | 1.7 | 0.00 | 0.01 | 0.00 | 35 | 991.8 |
| 20260504224709 | 60 | 85 | 1.7 | 2.6 | 0.00 | 0.01 | 0.00 | 38 | 991.7 |
| 20260504224209 | 59 | 90 | 2.6 | 4.3 | 0.00 | 0.01 | 0.00 | 38 | 991.7 |
| 20260504223711 | 59 | 144 | 1.7 | 2.6 | 0.00 | 0.01 | 0.00 | 39 | 991.6 |
| 20260504223211 | 59 | 166 | 4.3 | 4.3 | 0.00 | 0.01 | 0.00 | 40 | 991.6 |
| 20260504222710 | 59 | 206 | 4.3 | 4.3 | 0.00 | 0.01 | 0.00 | 39 | 991.5 |
| 20260504222209 | 59 | 157 | 1.7 | 2.6 | 0.00 | 0.01 | 0.00 | 39 | 991.5 |
| 20260504221709 | 59 | 269 | 1.7 | 1.7 | 0.00 | 0.01 | 0.00 | 40 | 991.5 |
| 20260504221211 | 57 | 282 | 1.7 | 1.7 | 0.00 | 0.02 | 0.00 | 40 | 991.5 |
| 20260504220711 | 58 | 134 | 2.6 | 4.3 | 0.00 | 0.02 | 0.00 | 40 | 991.5 |
| 20260504220211 | 58 | 121 | 1.7 | 4.3 | 0.00 | 0.02 | 0.00 | 41 | 991.3 |
| 20260504215710 | 58 | 43 | 1.7 | 1.7 | 0.00 | 0.02 | 0.00 | 41 | 991.3 |
| 20260504215210 | 58 | 125 | 1.7 | 1.7 | 0.00 | 0.02 | 0.00 | 40 | 991.3 |
| 20260504214710 | 56 | 321 | 1.7 | 2.6 | 0.00 | 0.03 | 0.00 | 42 | 991.2 |
| 20260504214210 | 56 | 12 | 1.7 | 2.6 | 0.00 | 0.04 | 0.00 | 41 | 991.2 |
| 20260504213710 | 56 | 338 | 2.6 | 5.2 | 0.00 | 0.05 | 0.00 | 42 | 991.2 |
| 20260504213209 | 56 | 4 | 2.6 | 4.3 | 0.00 | 0.06 | 0.00 | 42 | 991.2 |
| 20260504212709 | 55 | 290 | 2.6 | 2.6 | 0.00 | 0.06 | 0.00 | 42 | 991.1 |
| 20260504212211 | 55 | 315 | 1.7 | 1.7 | 0.00 | 0.06 | 0.00 | 43 | 991.0 |
| 20260504211711 | 55 | 104 | 2.6 | 1.7 | 0.00 | 0.06 | 0.00 | 44 | 991.0 |
| 20260504211211 | 54 | 202 | 1.7 | 1.7 | 0.00 | 0.06 | 0.00 | 48 | 990.7 |
| 20260504210710 | 54 | 208 | 1.7 | 2.6 | 0.00 | 0.06 | 0.00 | 49 | 990.7 |
| 20260504210210 | 53 | 202 | 1.7 | 2.6 | 0.00 | 0.06 | 0.00 | 49 | 990.4 |
| 20260504205710 | 53 | 124 | 0.9 | 0.9 | 0.00 | 0.06 | 0.00 | 49 | 990.4 |
| 20260504205210 | 53 | 188 | 1.7 | 2.6 | 0.00 | 0.06 | 0.00 | 48 | 990.4 |
| 20260504204710 | 53 | 281 | 1.7 | 4.3 | 0.00 | 0.06 | 0.00 | 45 | 990.1 |
| 20260504204209 | 53 | 9 | 0.9 | 0.9 | 0.00 | 0.06 | 0.00 | 48 | 990.1 |
| 20260504203709 | 52 | 333 | 1.7 | 1.7 | 0.00 | 0.06 | 0.00 | 48 | 990.0 |
| 20260504203211 | 52 | 357 | 2.6 | 4.3 | 0.00 | 0.06 | 0.00 | 47 | 990.0 |
| 20260504202711 | 52 | 6 | 1.7 | 2.6 | 0.00 | 0.06 | 0.00 | 47 | 989.9 |
| 20260504202210 | 52 | 344 | 2.6 | 2.6 | 0.00 | 0.06 | 0.00 | 48 | 989.8 |
| 20260504201710 | 52 | 13 | 4.3 | 6.1 | 0.00 | 0.07 | 0.00 | 48 | 989.8 |
| 20260504201210 | 52 | 293 | 4.3 | 5.2 | 0.00 | 0.07 | 0.00 | 47 | 989.4 |
| 20260504200710 | 52 | 324 | 5.2 | 7.8 | 0.00 | 0.07 | 0.00 | 46 | 989.4 |
| 20260504200209 | 52 | 18 | 2.6 | 4.3 | 0.00 | 0.07 | 0.00 | 43 | 989.0 |
| 20260504195709 | 52 | 348 | 4.3 | 5.2 | 0.00 | 0.07 | 0.00 | 42 | 989.0 |
| 20260504195211 | 52 | 21 | 4.3 | 6.1 | 0.00 | 0.07 | 0.00 | 42 | 989.0 |
| 20260504194711 | 50 | 292 | 4.3 | 6.1 | 0.00 | 0.07 | 0.00 | 49 | 988.9 |
| 20260504194210 | 51 | 354 | 1.7 | 1.7 | 0.00 | 0.07 | 0.00 | 48 | 988.9 |
| 20260504193709 | 51 | 270 | 1.7 | 2.6 | 0.00 | 0.08 | 0.00 | 48 | 988.5 |
| 20260504193209 | 51 | 276 | 2.6 | 2.6 | 0.00 | 0.08 | 0.00 | 49 | 988.5 |
| 20260504192711 | 51 | 289 | 2.6 | 2.6 | 0.00 | 0.08 | 0.00 | 49 | 988.4 |
| 20260504192211 | 51 | 273 | 2.6 | 2.6 | 0.00 | 0.08 | 0.00 | 48 | 988.4 |
| 20260504191710 | 51 | 243 | 2.6 | 2.6 | 0.00 | 0.08 | 0.00 | 49 | 988.4 |
| 20260504191210 | 51 | 270 | 2.6 | 4.3 | 0.00 | 0.09 | 0.00 | 49 | 988.2 |
| 20260504190710 | 52 | 270 | 2.6 | 2.6 | 0.00 | 0.10 | 0.00 | 48 | 988.2 |
| 20260504190211 | 52 | 287 | 2.6 | 2.6 | 0.00 | 0.11 | 0.00 | 48 | 988.0 |
| 20260504185711 | 52 | 278 | 2.6 | 2.6 | 0.00 | 0.13 | 0.00 | 48 | 988.0 |
| 20260504185210 | 52 | 351 | 2.6 | 5.2 | 0.00 | 0.15 | 0.00 | 49 | 988.0 |
| 20260504184710 | 52 | 292 | 2.6 | 2.6 | 0.00 | 0.19 | 0.00 | 50 | 987.7 |
| 20260504184210 | 52 | 338 | 4.3 | 7.0 | 0.00 | 0.20 | 0.00 | 50 | 987.7 |
| 20260504183710 | 52 | 330 | 5.2 | 8.7 | 0.00 | 0.22 | 0.00 | 50 | 987.3 |
| 20260504183210 | 53 | 246 | 4.3 | 4.3 | 0.00 | 0.25 | 0.00 | 51 | 987.3 |
| 20260504182709 | 53 | 329 | 6.1 | 7.0 | 0.00 | 0.29 | 0.00 | 51 | 987.2 |
| 20260504182209 | 53 | 13 | 4.3 | 5.2 | 0.00 | 0.34 | 0.00 | 51 | 987.1 |
| 20260504181711 | 53 | 348 | 5.2 | 5.2 | 0.00 | 0.36 | 0.00 | 51 | 987.1 |
| 20260504181211 | 53 | 78 | 4.3 | 5.2 | 0.00 | 0.39 | 0.00 | 51 | 986.9 |
| 20260504180710 | 53 | 37 | 5.2 | 8.7 | 0.00 | 0.39 | 0.00 | 51 | 986.9 |
| 20260504180210 | 53 | 17 | 6.1 | 6.1 | 0.00 | 0.40 | 0.00 | 51 | 986.7 |
| 20260504175710 | 53 | 356 | 4.3 | 5.2 | 0.00 | 0.41 | 0.00 | 53 | 986.7 |
| 20260504175210 | 53 | 103 | 4.3 | 5.2 | 0.00 | 0.43 | 0.00 | 52 | 986.7 |
| 20260504174710 | 53 | 90 | 4.3 | 2.6 | 0.00 | 0.45 | 0.00 | 52 | 986.2 |
| 20260504174209 | 54 | 3 | 5.2 | 7.8 | 0.00 | 0.46 | 0.00 | 52 | 986.2 |
| 20260504173711 | 53 | 16 | 7.8 | 11.3 | 0.00 | 0.48 | 0.00 | 53 | 985.7 |
| 20260504173211 | 53 | 0 | 4.3 | 4.3 | 0.00 | 0.49 | 0.00 | 53 | 985.7 |
| 20260504172711 | 54 | 337 | 4.3 | 5.2 | 0.00 | 0.50 | 0.00 | 54 | 985.6 |
| 20260504172210 | 54 | 352 | 4.3 | 4.3 | 0.00 | 0.51 | 0.00 | 54 | 985.4 |
| 20260504171710 | 54 | 49 | 2.6 | 2.6 | 0.00 | 0.52 | 0.00 | 54 | 985.4 |
| 20260504171210 | 54 | 15 | 4.3 | 4.3 | 0.00 | 0.53 | 0.00 | 53 | 985.0 |
| 20260504170710 | 55 | 164 | 1.7 | 2.6 | 0.00 | 0.54 | 0.00 | 53 | 985.0 |
| 20260504170209 | 55 | 5 | 2.6 | 4.3 | 0.00 | 0.55 | 0.00 | 51 | 984.6 |
| 20260504160115 | 58 | 88 | 2.6 | 4.3 | 0.00 | 0.59 | 0.00 | 45 | 983.0 |
| 20260504151116 | 59 | 30 | 7.8 | 7.8 | 0.00 | 0.59 | 0.00 | 39 | 981.8 |
| 20260504150616 | 60 | 279 | 6.1 | 5.2 | 0.00 | 0.60 | 0.00 | 39 | 981.8 |
| 20260504150116 | 59 | 333 | 7.0 | 17.4 | 0.00 | 0.60 | 0.00 | 39 | 981.4 |
| 20260504141115 | 60 | 346 | 10.4 | 11.3 | 0.00 | 0.60 | 0.60 | 40 | 980.4 |
| 20260504140615 | 60 | 6 | 4.3 | 5.2 | 0.00 | 0.61 | 0.60 | 40 | 980.4 |
| 20260504140116 | 60 | 3 | 4.3 | 7.0 | 0.00 | 0.61 | 0.60 | 40 | 980.1 |
| 20260504130615 | 61 | 7 | 2.6 | 1.7 | 0.00 | 0.61 | 0.60 | 40 | 979.0 |
| 20260504130117 | 61 | 272 | 5.2 | 6.1 | 0.00 | 0.61 | 0.60 | 39 | 978.7 |